When you browse on this site, cookies collect data to enhance your experience and personalize the content and advertising you see.
Visit our Privacy Policy to learn more. By continuing to use the site, you agree to this use of cookies and data.
  • Em Portugal
  • Lista de países
  • Para 7 dias
  • Temperatura da água
  • Mapas de satélite
  • Mapa do tempo
  • Widgets de tempo
  • user-avatar
    Iniciar Sessão

    Previsão horária em Barce

    Hoje, 24 Abril, Quarta-feira

    Tempo Temperatura Precipitação Vento Pressão Humidade
    00:00 +11°C° 0 mm 7 m/s 753 mmHg 56%
    01:00 +10°C° 0 mm 5 m/s 753 mmHg 60%
    02:00 +10°C° 0 mm 6 m/s 753 mmHg 62%
    03:00 +9°C° 0 mm 6 m/s 752 mmHg 65%
    04:00 +9°C° 0 mm 6 m/s 752 mmHg 67%
    05:00 +10°C° 0 mm 6 m/s 752 mmHg 68%
    06:00 +10°C° 0 mm 6 m/s 752 mmHg 70%
    07:00 +11°C° 0 mm 7 m/s 752 mmHg 70%
    08:00 +14°C° 0 mm 7 m/s 752 mmHg 66%
    09:00 +15°C° 0 mm 7 m/s 752 mmHg 63%
    10:00 +17°C° 0 mm 7 m/s 752 mmHg 60%
    11:00 +17°C° 0 mm 7 m/s 752 mmHg 59%
    12:00 +19°C° 0 mm 6 m/s 752 mmHg 58%
    13:00 +20°C° 0 mm 6 m/s 752 mmHg 56%
    14:00 +20°C° 0 mm 6 m/s 752 mmHg 57%
    15:00 +20°C° 0 mm 5 m/s 752 mmHg 58%
    16:00 +20°C° 0 mm 5 m/s 752 mmHg 59%
    17:00 +19°C° 0 mm 5 m/s 752 mmHg 60%
    18:00 +19°C° 0 mm 5 m/s 752 mmHg 62%
    19:00 +17°C° 0 mm 5 m/s 751 mmHg 64%
    20:00 +16°C° 0 mm 5 m/s 752 mmHg 66%
    21:00 +16°C° 0 mm 5 m/s 752 mmHg 69%
    22:00 +15°C° 0 mm 5 m/s 752 mmHg 72%
    23:00 +14°C° 0 mm 5 m/s 752 mmHg 73%

    Amanhã, 25 Abril, Quinta-feira

    Tempo Temperatura Precipitação Vento Pressão Humidade
    00:00 +14°C° 0 mm 5 m/s 752 mmHg 74%
    01:00 +13°C° 0 mm 5 m/s 752 mmHg 75%
    02:00 +13°C° 0 mm 5 m/s 752 mmHg 76%
    03:00 +13°C° 0 mm 5 m/s 752 mmHg 77%
    04:00 +13°C° 0 mm 5 m/s 752 mmHg 78%
    05:00 +14°C° 0 mm 5 m/s 752 mmHg 76%
    06:00 +15°C° 0 mm 5 m/s 752 mmHg 75%
    07:00 +16°C° 0 mm 5 m/s 752 mmHg 73%
    08:00 +17°C° 0 mm 5 m/s 752 mmHg 69%
    09:00 +20°C° 0 mm 5 m/s 752 mmHg 64%
    10:00 +21°C° 0 mm 5 m/s 752 mmHg 60%
    11:00 +21°C° 0 mm 5 m/s 752 mmHg 59%
    12:00 +22°C° 0 mm 5 m/s 752 mmHg 57%
    13:00 +22°C° 0 mm 4 m/s 752 mmHg 56%
    14:00 +22°C° 0 mm 4 m/s 752 mmHg 57%
    15:00 +22°C° 0 mm 3 m/s 752 mmHg 58%
    16:00 +23°C° 0 mm 2 m/s 752 mmHg 60%
    17:00 +21°C° 0 mm 2 m/s 752 mmHg 65%
    18:00 +20°C° 0 mm 1 m/s 752 mmHg 70%
    19:00 +17°C° 0 mm 0 m/s 752 mmHg 76%
    20:00 +18°C° 0 mm 1 m/s 752 mmHg 78%
    21:00 +18°C° 0 mm 1 m/s 752 mmHg 81%
    22:00 +16°C° 0 mm 2 m/s 752 mmHg 83%
    23:00 +16°C° 0 mm 2 m/s 751 mmHg 84%

    Depois de amanhã, 26 Abril, Sexta-feira

    Tempo Temperatura Precipitação Vento Pressão Humidade
    00:00 +15°C° 0 mm 2 m/s 751 mmHg 86%
    01:00 +15°C° 0 mm 2 m/s 751 mmHg 87%
    02:00 +14°C° 0 mm 2 m/s 751 mmHg 88%
    03:00 +14°C° 0 mm 2 m/s 750 mmHg 88%
    04:00 +14°C° 0 mm 2 m/s 750 mmHg 88%
    05:00 +14°C° 0 mm 3 m/s 750 mmHg 82%
    06:00 +17°C° 0 mm 3 m/s 749 mmHg 76%
    07:00 +18°C° 0 mm 3 m/s 749 mmHg 69%
    08:00 +19°C° 0 mm 3 m/s 749 mmHg 64%
    09:00 +21°C° 0 mm 3 m/s 749 mmHg 58%
    10:00 +24°C° 0 mm 3 m/s 749 mmHg 53%
    11:00 +24°C° 0 mm 3 m/s 748 mmHg 51%
    12:00 +25°C° 0 mm 4 m/s 748 mmHg 49%
    13:00 +26°C° 0 mm 4 m/s 748 mmHg 47%
    14:00 +26°C° 0 mm 4 m/s 747 mmHg 47%
    15:00 +26°C° 0 mm 3 m/s 747 mmHg 47%
    16:00 +26°C° 0 mm 3 m/s 747 mmHg 47%
    17:00 +24°C° 0 mm 2 m/s 747 mmHg 53%
    18:00 +22°C° 0 mm 1 m/s 747 mmHg 59%
    19:00 +18°C° 0 mm 0 m/s 747 mmHg 65%
    20:00 +20°C° 0 mm 1 m/s 747 mmHg 67%
    21:00 +19°C° 0 mm 1 m/s 747 mmHg 68%
    22:00 +19°C° 0 mm 1 m/s 747 mmHg 70%
    23:00 +17°C° 0 mm 2 m/s 747 mmHg 73%

    27 Abril, Sábado

    Tempo Temperatura Precipitação Vento Pressão Humidade
    00:00 +17°C° 0 mm 2 m/s 747 mmHg 76%
    01:00 +16°C° 0 mm 3 m/s 747 mmHg 80%
    02:00 +15°C° 0.6 mm 4 m/s 748 mmHg 85%
    03:00 +14°C° 0.6 mm 5 m/s 748 mmHg 90%
    04:00 +13°C° 0.6 mm 5 m/s 748 mmHg 95%
    05:00 +13°C° 0.3 mm 6 m/s 749 mmHg 93%
    06:00 +13°C° 0.3 mm 6 m/s 749 mmHg 91%
    07:00 +13°C° 0.3 mm 6 m/s 749 mmHg 90%
    08:00 +13°C° 0.1 mm 6 m/s 749 mmHg 89%
    09:00 +11°C° 0.1 mm 6 m/s 750 mmHg 88%
    10:00 +11°C° 0.1 mm 6 m/s 750 mmHg 87%
    11:00 +11°C° 0 mm 6 m/s 750 mmHg 84%
    12:00 +13°C° 0 mm 5 m/s 750 mmHg 82%
    13:00 +13°C° 0 mm 5 m/s 750 mmHg 79%
    14:00 +13°C° 0 mm 5 m/s 750 mmHg 78%
    15:00 +14°C° 0 mm 5 m/s 750 mmHg 76%
    16:00 +14°C° 0 mm 4 m/s 750 mmHg 74%
    17:00 +13°C° 0 mm 4 m/s 750 mmHg 75%
    18:00 +13°C° 0 mm 3 m/s 750 mmHg 75%
    19:00 +13°C° 0 mm 3 m/s 750 mmHg 76%
    20:00 +12°C° 0 mm 3 m/s 750 mmHg 78%
    21:00 +12°C° 0 mm 2 m/s 751 mmHg 81%
    22:00 +10°C° 0 mm 2 m/s 751 mmHg 84%
    23:00 +9°C° 0 mm 2 m/s 751 mmHg 82%

    28 Abril, Domingo

    Tempo Temperatura Precipitação Vento Pressão Humidade
    00:00 +9°C° 0 mm 2 m/s 751 mmHg 80%
    01:00 +9°C° 0 mm 2 m/s 751 mmHg 79%
    02:00 +9°C° 0 mm 2 m/s 751 mmHg 78%
    03:00 +9°C° 0 mm 2 m/s 751 mmHg 78%
    04:00 +9°C° 0 mm 2 m/s 751 mmHg 77%
    05:00 +9°C° 0 mm 3 m/s 752 mmHg 76%
    06:00 +10°C° 0 mm 4 m/s 752 mmHg 75%
    07:00 +10°C° 0 mm 4 m/s 752 mmHg 74%
    08:00 +12°C° 0 mm 5 m/s 752 mmHg 71%
    09:00 +13°C° 0 mm 5 m/s 753 mmHg 67%
    10:00 +15°C° 0 mm 5 m/s 753 mmHg 63%
    11:00 +15°C° 0 mm 5 m/s 753 mmHg 61%
    12:00 +16°C° 0 mm 5 m/s 753 mmHg 59%
    13:00 +17°C° 0 mm 5 m/s 753 mmHg 56%
    14:00 +17°C° 0.2 mm 4 m/s 753 mmHg 61%
    15:00 +15°C° 0.2 mm 4 m/s 753 mmHg 66%
    16:00 +16°C° 0.2 mm 3 m/s 753 mmHg 71%
    17:00 +14°C° 0.5 mm 3 m/s 753 mmHg 76%
    18:00 +13°C° 0.5 mm 3 m/s 753 mmHg 81%
    19:00 +12°C° 0.5 mm 3 m/s 754 mmHg 86%
    20:00 +12°C° 0.3 mm 3 m/s 754 mmHg 87%
    21:00 +11°C° 0.3 mm 4 m/s 754 mmHg 88%
    22:00 +11°C° 0.3 mm 4 m/s 754 mmHg 90%
    23:00 +11°C° 0 mm 4 m/s 754 mmHg 90%

    29 Abril, Segunda-feira

    Tempo Temperatura Precipitação Vento Pressão Humidade
    00:00 +10°C° 0 mm 4 m/s 754 mmHg 91%
    01:00 +10°C° 0 mm 4 m/s 754 mmHg 92%
    02:00 +10°C° 0 mm 4 m/s 754 mmHg 92%
    03:00 +10°C° 0 mm 4 m/s 753 mmHg 93%
    04:00 +10°C° 0 mm 4 m/s 753 mmHg 93%
    05:00 +10°C° 0 mm 4 m/s 753 mmHg 92%
    06:00 +10°C° 0 mm 4 m/s 753 mmHg 92%
    07:00 +11°C° 0 mm 4 m/s 753 mmHg 91%
    08:00 +11°C° 0.2 mm 4 m/s 753 mmHg 91%
    09:00 +11°C° 0.2 mm 4 m/s 753 mmHg 92%
    10:00 +12°C° 0.2 mm 4 m/s 753 mmHg 93%
    11:00 +13°C° 0.2 mm 4 m/s 753 mmHg 91%
    12:00 +13°C° 0.2 mm 5 m/s 753 mmHg 89%
    13:00 +14°C° 0.2 mm 6 m/s 753 mmHg 87%
    14:00 +14°C° 0.3 mm 5 m/s 753 mmHg 86%
    15:00 +13°C° 0.3 mm 5 m/s 753 mmHg 86%
    16:00 +13°C° 0.3 mm 5 m/s 753 mmHg 85%
    17:00 +13°C° 0 mm 5 m/s 754 mmHg 86%
    18:00 +12°C° 0 mm 4 m/s 754 mmHg 86%
    19:00 +12°C° 0 mm 4 m/s 754 mmHg 87%
    20:00 +12°C° 0 mm 4 m/s 755 mmHg 86%
    21:00 +11°C° 0 mm 4 m/s 755 mmHg 86%
    22:00 +11°C° 0 mm 4 m/s 755 mmHg 86%
    23:00 +11°C° 0 mm 4 m/s 756 mmHg 84%
    Mostrar mais